Preview of NWS' New Version of Forecast
This preview is not operational and should not be used for support decisions.

Regional Weather Roundup (RWR)

Issued by National Weather Service (NWS)

                            
000
ASUS46 KSEW 161410
RWRWA 

WASHINGTON REGIONAL WEATHER ROUNDUP
NATIONAL WEATHER SERVICE SEATTLE WA
700 AM PDT MON SEP 16 2019

NOTE:"FAIR" INDICATES FEW OR NO CLOUDS BELOW 12,000 FEET WITH NO 
SIGNIFICANT WEATHER AND/OR OBSTRUCTIONS TO VISIBILITY.

WAZ507-509-555>559-161500-
SEATTLE, TACOMA, EVERETT, AND VICINITY
  
CITY           SKY/WX    TMP DP  RH WIND       PRES   REMARKS
EVERETT        CLOUDY    54  53  97 S8        29.81R FOG              
BOEING FIELD   MOCLDY    52  51  97 CALM      29.81R FOG              
RENTON         FOG       53  52  96 S3        29.81R VSB 1/4          
SEATAC AIRPORT PTCLDY    55  51  86 S5        29.81R                  
JBLM-MCCHORD   NOT AVBL                                               
PUYALLUP       MOCLDY    50  50 100 CALM      29.81R                  
BREMERTON      FOG       53  53 100 SW6       29.81R VSB 1/4          
JBLM-FT LEWIS  MOCLDY    49  49 100 CALM      29.81R                  
TACOMA NARROWS CLOUDY    52  52 100 S5        29.81R                  
$$
 
WAZ001-503-506-510-514-515-161500-
NORTH INTERIOR
  
CITY           SKY/WX    TMP DP  RH WIND       PRES   REMARKS
BELLINGHAM     HVY RAIN  55  50  83 N3        29.80R VSB 1            
FRIDAY HARBOR  FOG       54  52  93 CALM      29.80R VSB 1/2          
EASTSOUND      CLOUDY    54  54 100 CALM      29.78S                  
PORT ANGELES   CLOUDY    49  47  93 S3        29.80R                  
EDIZ HOOK      CLOUDY    50  50  99 W3        29.80R                  
PORT TOWNSEND  FOG       48  48 100 CALM      29.79R VSB<1/4          
NAS WHIDBEY    CLOUDY    58  52  80 CALM      29.83R                  
ARLINGTON      CLOUDY    55  54  94 E3        29.81R                  
BURLINGTON     CLOUDY    57  55  94 E5        29.80R                  
$$
 
WAZ020-022-039-040-504-511-512-161500-
SOUTHWEST INTERIOR
  
CITY           SKY/WX    TMP DP  RH WIND       PRES   REMARKS
SHELTON        FOG       53  50  89 NW3       29.78S VSB 1/4          
OLYMPIA        CLOUDY    54  53  97 S6        29.80R                  
CHEHALIS       CLOUDY    55  55 100 CALM      29.81S                  
KELSO          CLOUDY    54  53  97 CALM      29.83R                  
VANCOUVER      CLOUDY    59  53  80 CALM      29.82R                  
SCAPPOOSE, OR  CLOUDY    52  51  97 CALM      29.82R                  
PORTLAND, OR   CLOUDY    58  53  84 S5        29.83R                  
$$
 
WAZ021-516-517-161500-
WASHINGTON COAST
  
CITY           SKY/WX    TMP DP  RH WIND       PRES   REMARKS
FORKS          PTCLDY    50  49  96 E5        29.77R                  
HOQUIAM        CLOUDY    53  53 100 NE5       29.80R                  
ASTORIA, OR    LGT RAIN  53  52  96 S6        29.78F                  
$$
 
WAZ019-023-024-040-567>569-161500-
CASCADE MOUNTAINS AND COLUMBIA GORGE
  
CITY           SKY/WX    TMP DP  RH WIND       PRES   REMARKS
STAMPEDE PASS  NOT AVBL                                               
TROUTDALE, OR  CLOUDY    59  53  80 CALM      29.82R                  
HOOD RIVER, OR DRIZZLE   54  52  94 CALM      29.82R                  
THE DALLES, OR CLOUDY    55  53  93 N3        29.79R                  
$$

WAZ026-027-041>044-520-521-161500-
EAST SLOPES
  
CITY           SKY/WX    TMP DP  RH WIND       PRES   REMARKS
OMAK           CLOUDY    53  48  83 CALM      29.77R                  
WENATCHEE      MOCLDY    50  46  86 SW6       29.76R                  
ELLENSBURG     FOG       48  45  89 CALM      29.78R VSB 3/4          
YAKIMA         MOCLDY    47  44  90 W3        29.78R                  
SUNNYSIDE ARPT CLOUDY    52  51  98 CALM      29.78R                  
YAKIMA TC      PTSUNNY   47  46  93 E3        29.76S                  
$$

WAZ028-034-035-161500-
COLUMBIA BASIN
  
CITY           SKY/WX    TMP DP  RH WIND       PRES   REMARKS
EPHRATA        MOCLDY    53  50  89 N5        29.76R                  
MOSES LAKE     CLOUDY    55  50  83 SE3       29.76S                  
PASCO          CLOUDY    57  57 100 S7        29.78R                  
RICHLAND ARPT  CLOUDY    58  54  84 CALM      29.78                   
HERMISTON, OR  RAIN      56  53  90 S6        29.78S                  
$$

WAZ036>038-161500-
NORTHEAST WASHINGTON
  
CITY           SKY/WX    TMP DP  RH WIND       PRES   REMARKS
SPOKANE GEIGER CLOUDY    54  44  69 SW7       29.79R                  
SPOKANE FELTS  CLOUDY    57  44  62 CALM      29.79S                  
FAIRCHILD AFB  CLOUDY    52  47  82 SW3       29.79R                  
COEURDALENE,ID MOCLDY    53  46  77 CALM      29.80R                  
DEER PARK      CLOUDY    54  46  74 MISG      29.79S                  
$$

WAZ029>033-161500-
SOUTHEAST WASHINGTON
  
CITY           SKY/WX    TMP DP  RH WIND       PRES   REMARKS
PULLMAN        CLOUDY    51  44  77 N5        29.80S                  
LEWISTON, ID   MOCLDY    57  44  62 S7        29.77R                  
WALLA WALLA    CLOUDY    58  46  64 CALM      29.78S                  
PENDLETON, OR  RAIN      53  50  89 CALM      29.79R FOG              
$$